Time,TemperatureF,DewpointF,PressureIn,WindDirection,WindDirectionDegrees,WindSpeedMPH,WindSpeedGustMPH,Humidity,HourlyPrecipIn,Conditions,Clouds,dailyrainin,SolarRadiationWatts/m^2,SoftwareType,DateUTC
2013-01-18 00:03:00,27.8,14.5,31.79,South,178,3.3,4.6,57,0.00,CLR,,0.00,0.0,WeatherDisplay:10.37,2013-01-18 07:03:00,
2013-01-18 00:08:00,27.8,14.5,31.79,South,178,0.0,0.0,57,0.00,CLR,,0.00,0.0,WeatherDisplay:10.37,2013-01-18 07:08:00,
2013-01-18 00:13:00,27.8,14.5,31.79,South,178,2.1,3.5,57,0.00,CLR,,0.00,0.0,WeatherDisplay:10.37,2013-01-18 07:13:00,
2013-01-18 00:18:00,27.8,14.1,31.79,South,178,2.3,3.5,56,0.00,CLR,,0.00,0.0,WeatherDisplay:10.37,2013-01-18 07:18:00,
2013-01-18 00:23:00,27.7,14.0,31.79,South,178,0.0,0.0,56,0.00,CLR,,0.00,0.0,WeatherDisplay:10.37,2013-01-18 07:23:00,
2013-01-18 00:28:00,27.7,13.6,31.79,South,178,2.1,3.5,55,0.00,CLR,,0.00,0.0,WeatherDisplay:10.37,2013-01-18 07:28:00,
2013-01-18 00:33:00,27.6,13.5,31.79,South,178,3.4,5.8,55,0.00,CLR,,0.00,0.0,WeatherDisplay:10.37,2013-01-18 07:33:00,
2013-01-18 00:38:00,27.5,13.0,31.79,South,178,3.0,5.0,54,0.00,CLR,,0.00,0.0,WeatherDisplay:10.37,2013-01-18 07:38:00,
2013-01-18 00:43:00,27.5,13.0,31.79,South,178,2.8,3.5,54,0.00,CLR,,0.00,0.0,WeatherDisplay:10.37,2013-01-18 07:43:00,
2013-01-18 00:48:00,27.4,12.9,31.79,South,178,0.0,0.0,54,0.00,CLR,,0.00,0.0,WeatherDisplay:10.37,2013-01-18 07:48:00,
2013-01-18 00:53:00,27.4,12.9,31.79,South,178,2.4,3.5,54,0.00,CLR,,0.00,0.0,WeatherDisplay:10.37,2013-01-18 07:53:00,
2013-01-18 00:58:00,27.3,12.8,31.79,South,178,2.6,3.5,54,0.00,CLR,,0.00,0.0,WeatherDisplay:10.37,2013-01-18 07:58:00,
2013-01-18 01:03:00,27.3,13.2,31.79,South,176,3.1,4.6,55,0.00,CLR,,0.00,0.0,WeatherDisplay:10.37,2013-01-18 08:03:00,
2013-01-18 01:08:00,27.2,13.1,31.79,South,176,3.2,5.0,55,0.00,CLR,,0.00,0.0,WeatherDisplay:10.37,2013-01-18 08:08:00,
2013-01-18 01:13:00,27.3,12.8,31.79,South,177,2.5,4.6,54,0.00,CLR,,0.00,0.0,WeatherDisplay:10.37,2013-01-18 08:13:00,
2013-01-18 01:18:00,27.4,12.9,31.79,South,178,2.9,4.0,54,0.00,CLR,,0.00,0.0,WeatherDisplay:10.37,2013-01-18 08:18:00,
2013-01-18 01:23:00,27.6,13.1,31.79,South,178,2.0,3.5,54,0.00,CLR,,0.00,0.0,WeatherDisplay:10.37,2013-01-18 08:23:00,
2013-01-18 01:28:00,27.8,13.3,31.79,South,177,2.9,3.5,54,0.00,CLR,,0.00,0.0,WeatherDisplay:10.37,2013-01-18 08:28:00,
2013-01-18 01:33:00,27.9,13.4,31.79,South,177,2.6,4.0,54,0.00,CLR,,0.00,0.0,WeatherDisplay:10.37,2013-01-18 08:33:00,
2013-01-18 01:38:00,27.9,13.4,31.79,South,186,4.6,6.0,54,0.00,CLR,,0.00,0.0,WeatherDisplay:10.37,2013-01-18 08:38:00,
2013-01-18 01:43:00,28.0,13.5,31.79,South,181,4.0,5.8,54,0.00,CLR,,0.00,0.0,WeatherDisplay:10.37,2013-01-18 08:43:00,
2013-01-18 01:48:00,28.2,13.2,31.79,South,184,3.3,4.6,53,0.00,CLR,,0.00,0.0,WeatherDisplay:10.37,2013-01-18 08:48:00,
2013-01-18 01:53:00,28.2,13.7,31.79,South,183,2.8,4.6,54,0.00,CLR,,0.00,0.0,WeatherDisplay:10.37,2013-01-18 08:53:00,
2013-01-18 01:58:00,28.3,13.8,31.79,South,180,4.0,5.0,54,0.00,CLR,,0.00,0.0,WeatherDisplay:10.37,2013-01-18 08:58:00,
2013-01-18 02:03:00,28.2,13.7,31.79,South,180,2.1,3.5,54,0.00,CLR,,0.00,0.0,WeatherDisplay:10.37,2013-01-18 09:03:00,
2013-01-18 02:08:00,28.1,13.6,31.79,South,180,2.9,3.5,54,0.00,CLR,,0.00,0.0,WeatherDisplay:10.37,2013-01-18 09:08:00,
2013-01-18 02:13:00,28.1,13.6,31.79,South,180,2.6,4.6,54,0.00,CLR,,0.00,0.0,WeatherDisplay:10.37,2013-01-18 09:13:00,
2013-01-18 02:18:00,27.9,13.4,31.79,South,180,1.3,3.5,54,0.00,CLR,,0.00,0.0,WeatherDisplay:10.37,2013-01-18 09:18:00,
2013-01-18 02:23:00,27.8,13.3,31.79,South,180,1.9,4.6,54,0.00,CLR,,0.00,0.0,WeatherDisplay:10.37,2013-01-18 09:23:00,
2013-01-18 02:28:00,27.6,13.1,31.79,SSW,205,4.3,5.8,54,0.00,CLR,,0.00,0.0,WeatherDisplay:10.37,2013-01-18 09:28:00,
2013-01-18 02:33:00,27.4,12.5,31.79,South,190,3.6,3.6,53,0.00,CLR,,0.00,0.0,WeatherDisplay:10.37,2013-01-18 09:33:00,
2013-01-18 02:38:00,27.3,12.4,31.79,South,188,3.8,4.6,53,0.00,CLR,,0.00,0.0,WeatherDisplay:10.37,2013-01-18 09:38:00,
2013-01-18 02:43:00,27.2,12.3,31.79,South,184,4.1,6.9,53,0.00,CLR,,0.00,0.0,WeatherDisplay:10.37,2013-01-18 09:43:00,
2013-01-18 02:48:00,27.2,12.3,31.79,South,184,3.3,3.5,53,0.00,CLR,,0.00,0.0,WeatherDisplay:10.37,2013-01-18 09:48:00,
2013-01-18 02:53:00,27.2,12.3,31.79,South,184,4.4,4.6,53,0.00,CLR,,0.00,0.0,WeatherDisplay:10.37,2013-01-18 09:53:00,
2013-01-18 02:58:00,27.2,11.9,31.79,South,184,2.7,3.5,52,0.00,CLR,,0.00,0.0,WeatherDisplay:10.37,2013-01-18 09:58:00,
2013-01-18 03:03:00,27.2,11.4,31.79,South,184,2.8,4.0,51,0.00,CLR,,0.00,0.0,WeatherDisplay:10.37,2013-01-18 10:03:00,
2013-01-18 03:08:00,27.2,10.5,31.79,South,184,3.7,5.0,49,0.00,CLR,,0.00,0.0,WeatherDisplay:10.37,2013-01-18 10:08:00,
2013-01-18 03:13:00,27.3,10.6,31.79,South,178,4.0,7.0,49,0.00,CLR,,0.00,0.0,WeatherDisplay:10.37,2013-01-18 10:13:00,
2013-01-18 03:18:00,27.4,10.3,31.79,South,177,2.8,3.5,48,0.00,CLR,,0.00,0.0,WeatherDisplay:10.37,2013-01-18 10:18:00,
2013-01-18 03:23:00,27.6,10.4,31.79,South,189,4.3,6.0,48,0.00,CLR,,0.00,0.0,WeatherDisplay:10.37,2013-01-18 10:23:00,
2013-01-18 03:28:00,27.7,11.0,31.79,South,180,4.9,5.8,49,0.00,CLR,,0.00,0.0,WeatherDisplay:10.37,2013-01-18 10:28:00,
2013-01-18 03:33:00,27.7,11.0,31.79,South,188,2.8,4.0,49,0.00,CLR,,0.00,0.0,WeatherDisplay:10.37,2013-01-18 10:33:00,
2013-01-18 03:38:00,27.7,11.0,31.79,South,180,3.9,5.8,49,0.00,CLR,,0.00,0.0,WeatherDisplay:10.37,2013-01-18 10:38:00,
2013-01-18 03:43:00,27.7,11.0,31.79,South,190,4.4,5.0,49,0.00,CLR,,0.00,0.0,WeatherDisplay:10.37,2013-01-18 10:43:00,
2013-01-18 03:48:00,27.7,10.5,31.79,South,188,2.5,4.0,48,0.00,CLR,,0.00,0.0,WeatherDisplay:10.37,2013-01-18 10:48:00,
2013-01-18 03:53:00,27.7,10.5,31.79,South,182,3.4,5.8,48,0.00,CLR,,0.00,0.0,WeatherDisplay:10.37,2013-01-18 10:53:00,
2013-01-18 03:58:00,27.6,10.4,31.79,South,180,4.1,4.6,48,0.00,CLR,,0.00,0.0,WeatherDisplay:10.37,2013-01-18 10:58:00,
2013-01-18 04:03:00,27.6,10.4,31.17,South,179,3.8,5.0,48,0.00,CLR,,0.00,0.0,WeatherDisplay:10.37,2013-01-18 11:03:00,
2013-01-18 04:08:00,27.6,10.9,31.62,South,171,3.9,5.0,49,0.00,CLR,,0.00,0.0,WeatherDisplay:10.37,2013-01-18 11:08:00,
2013-01-18 04:13:00,27.5,10.8,31.62,SW,229,4.6,5.0,49,0.00,CLR,,0.00,0.0,WeatherDisplay:10.37,2013-01-18 11:13:00,
2013-01-18 04:18:00,27.6,11.4,31.62,SSW,194,4.5,6.9,50,0.00,CLR,,0.00,0.0,WeatherDisplay:10.37,2013-01-18 11:18:00,
2013-01-18 04:23:00,27.5,11.3,31.62,SSW,194,2.2,3.5,50,0.00,CLR,,0.00,0.0,WeatherDisplay:10.37,2013-01-18 11:23:00,
2013-01-18 04:28:00,27.5,11.3,31.62,South,180,3.6,6.0,50,0.00,CLR,,0.00,0.0,WeatherDisplay:10.37,2013-01-18 11:28:00,
2013-01-18 04:33:00,27.5,11.3,31.62,South,188,2.2,4.6,50,0.00,CLR,,0.00,0.0,WeatherDisplay:10.37,2013-01-18 11:33:00,
2013-01-18 04:38:00,27.4,11.2,31.62,South,180,2.2,4.6,50,0.00,CLR,,0.00,0.0,WeatherDisplay:10.37,2013-01-18 11:38:00,
2013-01-18 04:43:00,27.4,10.7,31.62,South,188,2.5,3.5,49,0.00,CLR,,0.00,0.0,WeatherDisplay:10.37,2013-01-18 11:43:00,
2013-01-18 04:48:00,27.4,10.3,31.62,SW,225,2.5,3.5,48,0.00,CLR,,0.00,0.0,WeatherDisplay:10.37,2013-01-18 11:48:00,
2013-01-18 04:53:00,27.4,10.3,31.62,South,185,2.2,4.0,48,0.00,CLR,,0.00,0.0,WeatherDisplay:10.37,2013-01-18 11:53:00,
2013-01-18 04:58:00,27.5,9.9,31.62,South,184,2.9,3.5,47,0.00,CLR,,0.00,0.0,WeatherDisplay:10.37,2013-01-18 11:58:00,
2013-01-18 05:03:00,27.5,9.9,31.62,South,178,4.9,9.2,47,0.00,CLR,,0.00,0.0,WeatherDisplay:10.37,2013-01-18 12:03:00,
2013-01-18 05:08:00,27.5,9.9,31.62,South,178,4.9,4.9,47,0.00,CLR,,0.00,0.0,WeatherDisplay:10.37,2013-01-18 12:08:00,
2013-01-18 05:13:00,27.5,9.9,31.62,South,178,4.9,4.9,47,0.00,CLR,,0.00,0.0,WeatherDisplay:10.37,2013-01-18 12:13:00,
2013-01-18 05:18:00,27.5,9.9,31.62,South,178,4.9,4.9,47,0.00,CLR,,0.00,0.0,WeatherDisplay:10.37,2013-01-18 12:18:00,
2013-01-18 05:23:00,27.5,9.9,31.62,South,178,4.9,4.9,47,0.00,CLR,,0.00,0.0,WeatherDisplay:10.37,2013-01-18 12:23:00,
2013-01-18 05:28:00,27.5,9.9,31.62,South,178,4.9,4.9,47,0.00,CLR,,0.00,0.0,WeatherDisplay:10.37,2013-01-18 12:28:00,
2013-01-18 05:33:00,27.5,9.9,31.62,South,178,4.9,4.9,47,0.00,CLR,,0.00,0.0,WeatherDisplay:10.37,2013-01-18 12:33:00,
2013-01-18 05:38:00,27.5,9.9,31.62,South,178,4.9,4.9,47,0.00,CLR,,0.00,0.0,WeatherDisplay:10.37,2013-01-18 12:38:00,
2013-01-18 05:43:00,27.5,9.9,31.62,South,178,4.9,4.9,47,0.00,CLR,,0.00,0.0,WeatherDisplay:10.37,2013-01-18 12:43:00,
2013-01-18 05:48:00,27.5,9.9,31.62,South,178,4.9,4.9,47,0.00,CLR,,0.00,0.0,WeatherDisplay:10.37,2013-01-18 12:48:00,
2013-01-18 05:53:00,27.5,9.9,31.62,South,178,4.9,4.9,47,0.00,CLR,,0.00,0.0,WeatherDisplay:10.37,2013-01-18 12:53:00,
2013-01-18 05:58:00,27.5,9.9,31.62,South,178,4.9,4.9,47,0.00,CLR,,0.00,0.0,WeatherDisplay:10.37,2013-01-18 12:58:00,
2013-01-18 06:03:00,27.5,9.9,31.62,South,178,4.9,4.9,47,0.00,CLR,,0.00,0.0,WeatherDisplay:10.37,2013-01-18 13:03:00,
2013-01-18 06:08:00,27.5,9.9,31.62,South,178,4.9,4.9,47,0.00,CLR,,0.00,0.0,WeatherDisplay:10.37,2013-01-18 13:08:00,
2013-01-18 06:13:00,27.5,9.9,31.62,South,178,4.9,4.9,47,0.00,CLR,,0.00,0.0,WeatherDisplay:10.37,2013-01-18 13:13:00,
2013-01-18 06:18:00,27.5,9.9,31.62,South,178,4.9,4.9,47,0.00,CLR,,0.00,0.0,WeatherDisplay:10.37,2013-01-18 13:18:00,
2013-01-18 06:23:00,27.5,9.9,31.62,South,178,4.9,4.9,47,0.00,CLR,,0.00,0.0,WeatherDisplay:10.37,2013-01-18 13:23:00,
2013-01-18 06:28:00,27.5,9.9,31.62,South,178,4.9,4.9,47,0.00,CLR,,0.00,0.0,WeatherDisplay:10.37,2013-01-18 13:28:00,
2013-01-18 06:33:00,27.5,9.9,31.62,South,178,4.9,4.9,47,0.00,CLR,,0.00,0.0,WeatherDisplay:10.37,2013-01-18 13:33:00,
2013-01-18 06:38:00,27.5,9.9,31.62,South,178,4.9,4.9,47,0.00,CLR,,0.00,0.0,WeatherDisplay:10.37,2013-01-18 13:38:00,
2013-01-18 06:43:00,27.5,9.9,31.62,South,178,4.9,4.9,47,0.00,CLR,,0.00,0.0,WeatherDisplay:10.37,2013-01-18 13:43:00,
2013-01-18 06:48:00,27.5,9.9,31.62,South,178,4.9,4.9,47,0.00,CLR,,0.00,0.0,WeatherDisplay:10.37,2013-01-18 13:48:00,
2013-01-18 06:53:00,27.5,9.9,31.62,South,178,4.9,4.9,47,0.00,CLR,,0.00,0.0,WeatherDisplay:10.37,2013-01-18 13:53:00,
2013-01-18 06:58:00,27.5,9.9,31.62,South,178,4.9,4.9,47,0.00,CLR,,0.00,0.0,WeatherDisplay:10.37,2013-01-18 13:58:00,
2013-01-18 07:03:00,27.5,9.9,31.62,South,178,4.9,4.9,47,0.00,FEW,,0.00,0.0,WeatherDisplay:10.37,2013-01-18 14:03:00,
2013-01-18 07:08:00,27.5,9.9,31.62,South,178,4.9,4.9,47,0.00,FEW,,0.00,0.0,WeatherDisplay:10.37,2013-01-18 14:08:00,
2013-01-18 07:13:00,27.5,9.9,31.62,South,178,4.9,4.9,47,0.00,FEW,,0.00,0.0,WeatherDisplay:10.37,2013-01-18 14:13:00,
2013-01-18 07:18:00,27.5,9.9,31.62,South,178,4.9,4.9,47,0.00,FEW,,0.00,0.0,WeatherDisplay:10.37,2013-01-18 14:18:00,
2013-01-18 07:23:00,27.5,9.9,31.62,South,178,4.9,4.9,47,0.00,FEW,,0.00,0.0,WeatherDisplay:10.37,2013-01-18 14:23:00,
2013-01-18 07:28:00,27.5,9.9,31.62,South,178,4.9,4.9,47,0.00,FEW,,0.00,0.0,WeatherDisplay:10.37,2013-01-18 14:28:00,
2013-01-18 07:33:00,27.5,9.9,31.62,South,178,4.9,4.9,47,0.00,FEW,,0.00,0.0,WeatherDisplay:10.37,2013-01-18 14:33:00,
2013-01-18 07:38:00,27.5,9.9,31.62,South,178,4.9,4.9,47,0.00,FEW,,0.00,0.0,WeatherDisplay:10.37,2013-01-18 14:38:00,
2013-01-18 07:43:00,27.5,9.9,31.62,South,178,4.9,4.9,47,0.00,FEW,,0.00,0.0,WeatherDisplay:10.37,2013-01-18 14:43:00,
2013-01-18 07:48:00,27.5,9.9,31.62,South,178,4.9,4.9,47,0.00,FEW,,0.00,0.0,WeatherDisplay:10.37,2013-01-18 14:48:00,
2013-01-18 07:53:00,27.5,9.9,31.62,South,178,4.9,4.9,47,0.00,FEW,,0.00,0.0,WeatherDisplay:10.37,2013-01-18 14:53:00,
2013-01-18 07:58:00,27.5,9.9,31.62,South,178,4.9,4.9,47,0.00,FEW,,0.00,0.0,WeatherDisplay:10.37,2013-01-18 14:58:00,
2013-01-18 08:03:00,27.5,9.9,31.62,South,178,4.9,4.9,47,0.00,FEW,,0.00,0.0,WeatherDisplay:10.37,2013-01-18 15:03:00,
2013-01-18 08:08:00,27.5,9.9,31.62,South,178,4.9,4.9,47,0.00,FEW,,0.00,0.0,WeatherDisplay:10.37,2013-01-18 15:08:00,
2013-01-18 08:13:00,27.7,10.1,31.16,South,184,3.9,4.0,47,0.00,FEW,,0.00,91.0,WeatherDisplay:10.37,2013-01-18 15:13:00,
2013-01-18 08:18:00,28.0,9.9,31.16,South,169,3.1,3.5,46,0.00,FEW,,0.00,104.0,WeatherDisplay:10.37,2013-01-18 15:18:00,
2013-01-18 08:23:00,28.3,10.1,31.16,South,186,3.8,5.8,46,0.00,FEW,,0.00,26.0,WeatherDisplay:10.37,2013-01-18 15:23:00,
2013-01-18 08:28:00,28.7,10.0,31.16,South,182,3.5,4.6,45,0.00,FEW,,0.00,127.0,WeatherDisplay:10.37,2013-01-18 15:28:00,
2013-01-18 08:33:00,29.1,10.4,31.16,South,181,2.7,3.5,45,0.00,FEW,,0.00,56.0,WeatherDisplay:10.37,2013-01-18 15:33:00,
2013-01-18 08:38:00,29.6,10.3,31.16,South,190,4.6,5.8,44,0.00,FEW,,0.00,128.0,WeatherDisplay:10.37,2013-01-18 15:38:00,
2013-01-18 08:43:00,29.9,10.1,31.16,SSW,192,4.1,5.8,43,0.00,FEW,,0.00,216.0,WeatherDisplay:10.37,2013-01-18 15:43:00,
2013-01-18 08:48:00,30.5,10.6,31.16,South,175,4.7,6.9,43,0.00,FEW,,0.00,132.0,WeatherDisplay:10.37,2013-01-18 15:48:00,
2013-01-18 08:53:00,31.2,10.7,31.16,South,175,4.6,6.0,42,0.00,FEW,,0.00,185.0,WeatherDisplay:10.37,2013-01-18 15:53:00,
2013-01-18 08:58:00,31.7,11.2,31.16,South,184,4.0,5.0,42,0.00,FEW,,0.00,214.0,WeatherDisplay:10.37,2013-01-18 15:58:00,
2013-01-18 09:03:00,32.4,11.3,31.16,South,185,3.3,4.6,41,0.00,FEW,,0.00,225.0,WeatherDisplay:10.37,2013-01-18 16:03:00,
2013-01-18 09:08:00,33.1,11.4,31.16,South,178,3.0,4.6,40,0.00,FEW,,0.00,288.0,WeatherDisplay:10.37,2013-01-18 16:08:00,
2013-01-18 09:13:00,34.0,11.6,31.16,South,178,4.1,4.6,39,0.00,FEW,,0.00,308.0,WeatherDisplay:10.37,2013-01-18 16:13:00,
2013-01-18 09:18:00,34.6,11.6,31.16,South,178,3.6,4.6,38,0.00,FEW,,0.00,301.0,WeatherDisplay:10.37,2013-01-18 16:18:00,
2013-01-18 09:23:00,35.5,11.8,31.16,South,178,4.2,4.6,37,0.00,FEW,,0.00,332.0,WeatherDisplay:10.37,2013-01-18 16:23:00,
2013-01-18 09:28:00,36.4,11.9,31.16,South,176,3.5,4.6,36,0.00,FEW,,0.00,345.0,WeatherDisplay:10.37,2013-01-18 16:28:00,
2013-01-18 09:33:00,37.1,11.9,31.16,South,169,3.7,5.8,35,0.00,FEW,,0.00,334.0,WeatherDisplay:10.37,2013-01-18 16:33:00,
2013-01-18 09:38:00,37.8,11.9,31.16,South,171,4.3,5.8,34,0.00,FEW,,0.00,357.0,WeatherDisplay:10.37,2013-01-18 16:38:00,
2013-01-18 09:43:00,38.4,11.8,31.16,SSW,196,3.2,5.8,33,0.00,FEW,,0.00,336.0,WeatherDisplay:10.37,2013-01-18 16:43:00,
2013-01-18 09:48:00,39.2,12.5,31.16,South,179,3.9,6.0,33,0.00,FEW,,0.00,373.0,WeatherDisplay:10.37,2013-01-18 16:48:00,
2013-01-18 09:53:00,40.1,11.8,31.16,South,188,1.5,3.5,31,0.00,FEW,,0.00,388.0,WeatherDisplay:10.37,2013-01-18 16:53:00,
2013-01-18 09:58:00,41.0,11.9,31.16,South,169,3.3,5.0,30,0.00,FEW,,0.00,381.0,WeatherDisplay:10.37,2013-01-18 16:58:00,
2013-01-18 10:03:00,41.6,12.4,31.16,South,190,3.9,6.9,30,0.00,FEW,,0.00,272.0,WeatherDisplay:10.37,2013-01-18 17:03:00,
2013-01-18 10:08:00,42.1,12.1,31.16,South,182,4.4,8.1,29,0.00,FEW,,0.00,408.0,WeatherDisplay:10.37,2013-01-18 17:08:00,
2013-01-18 10:13:00,42.6,12.5,31.16,SSW,193,3.8,5.8,29,0.00,FEW,,0.00,431.0,WeatherDisplay:10.37,2013-01-18 17:13:00,
2013-01-18 10:18:00,43.3,12.3,31.16,South,188,4.1,4.1,28,0.00,FEW,,0.00,439.0,WeatherDisplay:10.37,2013-01-18 17:18:00,
2013-01-18 10:23:00,43.9,12.8,31.16,SSW,195,2.8,5.8,28,0.00,FEW,,0.00,439.0,WeatherDisplay:10.37,2013-01-18 17:23:00,
2013-01-18 10:28:00,44.6,12.6,31.16,South,181,2.4,5.8,27,0.00,FEW,,0.00,455.0,WeatherDisplay:10.37,2013-01-18 17:28:00,
2013-01-18 10:33:00,45.3,13.2,31.16,South,180,2.3,5.0,27,0.00,FEW,,0.00,461.0,WeatherDisplay:10.37,2013-01-18 17:33:00,
2013-01-18 10:38:00,45.9,12.9,31.16,SSW,192,2.0,4.6,26,0.00,FEW,,0.00,462.0,WeatherDisplay:10.37,2013-01-18 17:38:00,
2013-01-18 10:43:00,46.6,12.6,31.16,SSW,198,2.6,4.6,25,0.00,FEW,,0.00,461.0,WeatherDisplay:10.37,2013-01-18 17:43:00,
2013-01-18 10:48:00,47.2,13.1,31.16,SSW,194,3.2,4.6,25,0.00,FEW,,0.00,471.0,WeatherDisplay:10.37,2013-01-18 17:48:00,
2013-01-18 10:53:00,47.8,13.6,31.16,South,186,2.5,4.6,25,0.00,FEW,,0.00,487.0,WeatherDisplay:10.37,2013-01-18 17:53:00,
2013-01-18 10:58:00,48.5,13.3,31.16,SSE,160,2.4,3.5,24,0.00,FEW,,0.00,494.0,WeatherDisplay:10.37,2013-01-18 17:58:00,
2013-01-18 11:03:00,49.0,13.7,31.16,South,180,1.5,4.0,24,0.00,FEW,,0.00,497.0,WeatherDisplay:10.37,2013-01-18 18:03:00,
2013-01-18 11:08:00,49.9,13.5,31.16,South,186,2.5,5.8,23,0.00,FEW,,0.00,503.0,WeatherDisplay:10.37,2013-01-18 18:08:00,
2013-01-18 11:13:00,50.1,12.7,31.16,SSE,167,2.8,5.0,22,0.00,FEW,,0.00,508.0,WeatherDisplay:10.37,2013-01-18 18:13:00,
2013-01-18 11:18:00,50.6,13.1,31.16,South,178,3.5,4.6,22,0.00,FEW,,0.00,510.0,WeatherDisplay:10.37,2013-01-18 18:18:00,
2013-01-18 11:23:00,51.4,12.7,31.16,South,174,3.0,3.5,21,0.00,FEW,,0.00,515.0,WeatherDisplay:10.37,2013-01-18 18:23:00,
2013-01-18 11:28:00,51.7,13.0,31.16,South,180,3.7,3.7,21,0.00,FEW,,0.00,517.0,WeatherDisplay:10.37,2013-01-18 18:28:00,
2013-01-18 11:33:00,52.0,12.1,31.16,South,190,2.6,5.8,20,0.00,FEW,,0.00,519.0,WeatherDisplay:10.37,2013-01-18 18:33:00,
2013-01-18 11:38:00,52.5,11.4,31.16,SSE,150,3.3,4.0,19,0.00,FEW,,0.00,522.0,WeatherDisplay:10.37,2013-01-18 18:38:00,
2013-01-18 11:43:00,53.0,11.8,31.16,SSE,163,1.7,3.5,19,0.00,FEW,,0.00,223.0,WeatherDisplay:10.37,2013-01-18 18:43:00,
2013-01-18 11:48:00,53.8,11.2,31.16,SSE,168,3.2,3.5,18,0.00,FEW,,0.00,526.0,WeatherDisplay:10.37,2013-01-18 18:48:00,
2013-01-18 11:53:00,54.1,11.5,31.16,SSE,154,1.4,1.4,18,0.00,FEW,,0.00,527.0,WeatherDisplay:10.37,2013-01-18 18:53:00,
2013-01-18 11:58:00,54.0,10.1,31.16,SE,134,3.1,4.6,17,0.00,FEW,,0.00,526.0,WeatherDisplay:10.37,2013-01-18 18:58:00,
2013-01-18 12:03:00,54.2,10.3,31.16,South,171,3.1,3.5,17,0.00,FEW,,0.00,527.0,WeatherDisplay:10.37,2013-01-18 19:03:00,
2013-01-18 12:08:00,54.4,10.4,31.16,South,191,2.7,6.9,17,0.00,FEW,,0.00,526.0,WeatherDisplay:10.37,2013-01-18 19:08:00,
2013-01-18 12:13:00,54.8,10.7,31.16,South,190,1.6,2.3,17,0.00,FEW,,0.00,526.0,WeatherDisplay:10.37,2013-01-18 19:13:00,
2013-01-18 12:18:00,55.0,10.9,31.16,SSW,209,1.8,4.6,17,0.00,FEW,,0.00,526.0,WeatherDisplay:10.37,2013-01-18 19:18:00,
2013-01-18 12:23:00,55.1,11.0,31.16,SSW,198,3.7,6.9,17,0.00,FEW,,0.00,522.0,WeatherDisplay:10.37,2013-01-18 19:23:00,
2013-01-18 12:28:00,55.2,11.1,31.16,SE,146,2.6,4.0,17,0.00,FEW,,0.00,522.0,WeatherDisplay:10.37,2013-01-18 19:28:00,
2013-01-18 12:33:00,55.5,10.0,31.16,SSE,152,2.7,2.7,16,0.00,FEW,,0.00,520.0,WeatherDisplay:10.37,2013-01-18 19:33:00,
2013-01-18 12:38:00,55.7,10.1,31.16,South,175,3.8,5.8,16,0.00,FEW,,0.00,517.0,WeatherDisplay:10.37,2013-01-18 19:38:00,
2013-01-18 12:43:00,55.9,10.3,31.16,South,170,3.0,4.6,16,0.00,FEW,,0.00,513.0,WeatherDisplay:10.37,2013-01-18 19:43:00,
2013-01-18 12:48:00,56.0,10.4,31.16,South,175,1.5,4.6,16,0.00,FEW,,0.00,510.0,WeatherDisplay:10.37,2013-01-18 19:48:00,
2013-01-18 12:53:00,56.5,10.8,31.16,SW,231,2.1,4.6,16,0.00,FEW,,0.00,506.0,WeatherDisplay:10.37,2013-01-18 19:53:00,
2013-01-18 12:58:00,56.7,10.9,31.16,South,185,3.8,4.6,16,0.00,FEW,,0.00,504.0,WeatherDisplay:10.37,2013-01-18 19:58:00,
2013-01-18 13:03:00,56.7,10.9,31.16,South,185,3.8,3.8,16,0.00,FEW,,0.00,504.0,WeatherDisplay:10.37,2013-01-18 20:03:00,
2013-01-18 13:08:00,56.8,11.0,31.31,SSW,197,3.0,4.6,16,0.00,FEW,,0.00,496.0,WeatherDisplay:10.37,2013-01-18 20:08:00,
2013-01-18 13:13:00,57.1,11.3,31.31,SSW,209,1.5,3.5,16,0.00,FEW,,0.00,489.0,WeatherDisplay:10.37,2013-01-18 20:13:00,
2013-01-18 13:18:00,57.2,9.9,31.31,WNW,296,3.9,4.6,15,0.00,FEW,,0.00,482.0,WeatherDisplay:10.37,2013-01-18 20:18:00,
2013-01-18 13:23:00,57.5,10.1,31.31,West,273,7.4,17.3,15,0.00,FEW,,0.00,473.0,WeatherDisplay:10.37,2013-01-18 20:23:00,
2013-01-18 13:28:00,57.8,10.4,31.31,NW,309,6.9,12.7,15,0.00,FEW,,0.00,466.0,WeatherDisplay:10.37,2013-01-18 20:28:00,
2013-01-18 13:33:00,57.8,10.4,31.31,NNW,339,7.5,13.0,15,0.00,FEW,,0.00,455.0,WeatherDisplay:10.37,2013-01-18 20:33:00,
2013-01-18 13:38:00,57.6,10.2,31.31,NNW,331,7.7,17.3,15,0.00,FEW,,0.00,450.0,WeatherDisplay:10.37,2013-01-18 20:38:00,
2013-01-18 13:43:00,57.4,10.0,31.31,West,279,10.6,15.0,15,0.00,FEW,,0.00,418.0,WeatherDisplay:10.37,2013-01-18 20:43:00,
2013-01-18 13:48:00,57.4,10.0,31.31,WNW,292,5.8,9.2,15,0.00,FEW,,0.00,411.0,WeatherDisplay:10.37,2013-01-18 20:48:00,
2013-01-18 13:53:00,57.5,10.1,31.31,WNW,302,5.5,11.5,15,0.00,FEW,,0.00,418.0,WeatherDisplay:10.37,2013-01-18 20:53:00,
2013-01-18 13:58:00,57.6,10.2,31.31,NNW,337,6.5,11.5,15,0.00,FEW,,0.00,418.0,WeatherDisplay:10.37,2013-01-18 20:58:00,
2013-01-18 14:03:00,57.6,10.2,31.31,NW,310,5.5,16.1,15,0.00,FEW,,0.00,415.0,WeatherDisplay:10.37,2013-01-18 21:03:00,
2013-01-18 14:08:00,57.5,10.1,31.31,WNW,290,6.3,11.5,15,0.00,FEW,,0.00,404.0,WeatherDisplay:10.37,2013-01-18 21:08:00,
2013-01-18 14:13:00,57.4,10.0,31.31,West,271,8.0,11.5,15,0.00,FEW,,0.00,399.0,WeatherDisplay:10.37,2013-01-18 21:13:00,
2013-01-18 14:18:00,57.3,10.0,31.31,NNW,331,9.0,22.0,15,0.00,FEW,,0.00,388.0,WeatherDisplay:10.37,2013-01-18 21:18:00,
2013-01-18 14:23:00,57.1,9.8,31.31,NW,306,6.2,11.5,15,0.00,FEW,,0.00,359.0,WeatherDisplay:10.37,2013-01-18 21:23:00,
2013-01-18 14:28:00,57.1,9.8,31.31,WNW,300,4.3,7.0,15,0.00,FEW,,0.00,369.0,WeatherDisplay:10.37,2013-01-18 21:28:00,
2013-01-18 14:33:00,57.1,9.8,31.31,West,265,10.0,17.3,15,0.00,FEW,,0.00,357.0,WeatherDisplay:10.37,2013-01-18 21:33:00,
2013-01-18 14:38:00,56.8,11.0,31.31,WNW,288,8.2,11.5,16,0.00,FEW,,0.00,336.0,WeatherDisplay:10.37,2013-01-18 21:38:00,
2013-01-18 14:43:00,56.7,9.5,31.31,West,277,6.7,8.1,15,0.00,FEW,,0.00,308.0,WeatherDisplay:10.37,2013-01-18 21:43:00,
2013-01-18 14:48:00,56.6,9.4,31.31,WNW,298,7.1,16.0,15,0.00,FEW,,0.00,269.0,WeatherDisplay:10.37,2013-01-18 21:48:00,
2013-01-18 14:53:00,56.5,9.3,31.31,NW,309,7.6,13.8,15,0.00,FEW,,0.00,253.0,WeatherDisplay:10.37,2013-01-18 21:53:00,
2013-01-18 14:58:00,56.4,9.2,31.31,NW,317,9.5,13.8,15,0.00,FEW,,0.00,260.0,WeatherDisplay:10.37,2013-01-18 21:58:00,
2013-01-18 15:03:00,56.2,9.1,31.31,NW,311,7.1,20.7,15,0.00,FEW,,0.00,255.0,WeatherDisplay:10.37,2013-01-18 22:03:00,
2013-01-18 15:08:00,56.0,8.9,31.31,NNW,327,11.3,15.0,15,0.00,FEW,,0.00,250.0,WeatherDisplay:10.37,2013-01-18 22:08:00,
2013-01-18 15:13:00,55.7,8.7,31.31,NNW,329,7.3,12.7,15,0.00,FEW,,0.00,54.0,WeatherDisplay:10.37,2013-01-18 22:13:00,
2013-01-18 15:18:00,55.6,8.6,31.31,West,272,7.8,10.4,15,0.00,FEW,,0.00,209.0,WeatherDisplay:10.37,2013-01-18 22:18:00,
2013-01-18 15:23:00,55.5,8.5,31.31,NW,313,8.8,16.0,15,0.00,FEW,,0.00,183.0,WeatherDisplay:10.37,2013-01-18 22:23:00,
2013-01-18 15:28:00,55.3,8.4,31.31,NW,315,12.0,25.3,15,0.00,FEW,,0.00,135.0,WeatherDisplay:10.37,2013-01-18 22:28:00,
2013-01-18 15:33:00,55.3,8.4,31.31,NNW,331,8.7,19.6,15,0.00,FEW,,0.00,141.0,WeatherDisplay:10.37,2013-01-18 22:33:00,
2013-01-18 15:38:00,55.1,8.2,31.25,NW,307,7.0,20.7,15,0.00,FEW,,0.00,95.0,WeatherDisplay:10.37,2013-01-18 22:38:00,
2013-01-18 15:43:00,54.9,8.0,31.25,NW,305,9.3,20.7,15,0.00,FEW,,0.00,35.0,WeatherDisplay:10.37,2013-01-18 22:43:00,
2013-01-18 15:48:00,54.8,8.0,31.25,West,277,8.5,11.5,15,0.00,FEW,,0.00,69.0,WeatherDisplay:10.37,2013-01-18 22:48:00,
2013-01-18 15:53:00,54.6,9.2,31.25,WNW,289,9.4,13.8,16,0.00,FEW,,0.00,60.0,WeatherDisplay:10.37,2013-01-18 22:53:00,
2013-01-18 15:58:00,54.2,8.9,31.72,WNW,292,7.0,13.8,16,0.00,FEW,,0.00,69.0,WeatherDisplay:10.37,2013-01-18 22:58:00,
2013-01-18 16:03:00,54.0,8.7,31.72,NNW,337,9.7,15.0,16,0.00,FEW,,0.00,32.0,WeatherDisplay:10.37,2013-01-18 23:03:00,
2013-01-18 16:08:00,53.7,8.5,31.72,SW,234,7.5,12.7,16,0.00,FEW,,0.00,35.0,WeatherDisplay:10.37,2013-01-18 23:08:00,
2013-01-18 16:13:00,53.5,8.3,31.72,NW,316,6.6,10.4,16,0.00,FEW,,0.00,26.0,WeatherDisplay:10.37,2013-01-18 23:13:00,
2013-01-18 16:18:00,53.3,9.5,31.72,West,261,4.8,8.1,17,0.00,FEW,,0.00,23.0,WeatherDisplay:10.37,2013-01-18 23:18:00,
2013-01-18 16:23:00,53.0,9.3,31.72,WNW,284,7.0,11.5,17,0.00,FEW,,0.00,21.0,WeatherDisplay:10.37,2013-01-18 23:23:00,
2013-01-18 16:28:00,52.7,9.0,31.72,NW,318,3.9,5.8,17,0.00,FEW,,0.00,18.0,WeatherDisplay:10.37,2013-01-18 23:28:00,
2013-01-18 16:33:00,52.4,8.8,31.72,WNW,301,3.1,5.0,17,0.00,FEW,,0.00,16.0,WeatherDisplay:10.37,2013-01-18 23:33:00,
2013-01-18 16:38:00,52.1,8.5,31.72,NW,324,7.4,11.5,17,0.00,FEW,,0.00,14.0,WeatherDisplay:10.37,2013-01-18 23:38:00,
2013-01-18 16:43:00,51.9,8.4,31.72,WNW,284,6.1,11.5,17,0.00,FEW,,0.00,11.0,WeatherDisplay:10.37,2013-01-18 23:43:00,
2013-01-18 16:48:00,51.6,8.1,31.72,NNW,338,6.5,11.5,17,0.00,FEW,,0.00,9.0,WeatherDisplay:10.37,2013-01-18 23:48:00,
2013-01-18 16:53:00,51.4,8.0,31.72,NW,319,4.1,9.2,17,0.00,FEW,,0.00,7.0,WeatherDisplay:10.37,2013-01-18 23:53:00,
2013-01-18 16:58:00,51.2,9.1,31.72,NW,306,3.6,10.4,18,0.00,FEW,,0.00,5.0,WeatherDisplay:10.37,2013-01-18 23:58:00,
2013-01-18 17:03:00,51.0,8.9,31.72,WNW,299,3.6,9.2,18,0.00,FEW,,0.00,0.0,WeatherDisplay:10.37,2013-01-19 00:03:00,
2013-01-18 17:08:00,50.7,8.7,31.72,WNW,303,7.1,11.5,18,0.00,FEW,,0.00,0.0,WeatherDisplay:10.37,2013-01-19 00:08:00,
2013-01-18 17:13:00,50.4,8.4,31.72,WNW,282,3.0,9.2,18,0.00,FEW,,0.00,0.0,WeatherDisplay:10.37,2013-01-19 00:13:00,
2013-01-18 17:18:00,50.2,8.2,31.72,NNW,333,3.1,6.9,18,0.00,FEW,,0.00,0.0,WeatherDisplay:10.37,2013-01-19 00:18:00,
2013-01-18 17:23:00,49.9,9.2,31.72,NW,316,1.9,5.8,19,0.00,FEW,,0.00,0.0,WeatherDisplay:10.37,2013-01-19 00:23:00,
2013-01-18 17:28:00,49.8,9.1,31.72,West,266,1.9,3.5,19,0.00,FEW,,0.00,0.0,WeatherDisplay:10.37,2013-01-19 00:28:00,
2013-01-18 17:33:00,49.5,8.9,31.72,West,276,4.9,9.2,19,0.00,FEW,,0.00,0.0,WeatherDisplay:10.37,2013-01-19 00:33:00,
2013-01-18 17:38:00,49.3,8.7,31.72,WNW,294,4.1,6.9,19,0.00,FEW,,0.00,0.0,WeatherDisplay:10.37,2013-01-19 00:38:00,
2013-01-18 17:43:00,49.2,8.6,31.72,WNW,300,1.4,3.5,19,0.00,FEW,,0.00,0.0,WeatherDisplay:10.37,2013-01-19 00:43:00,
2013-01-18 17:49:00,49.1,8.5,31.72,North,360,2.5,6.9,19,0.00,FEW,,0.00,0.0,WeatherDisplay:10.37,2013-01-19 00:49:00,
2013-01-18 17:54:00,48.8,9.4,31.72,West,277,1.9,5.0,20,0.00,FEW,,0.00,0.0,WeatherDisplay:10.37,2013-01-19 00:54:00,
2013-01-18 17:59:00,48.6,9.3,31.72,WNW,300,4.6,5.8,20,0.00,FEW,,0.00,0.0,WeatherDisplay:10.37,2013-01-19 00:59:00,
2013-01-18 18:04:00,48.4,9.1,31.72,WNW,301,2.6,3.0,20,0.00,FEW,,0.00,0.0,WeatherDisplay:10.37,2013-01-19 01:04:00,
2013-01-18 18:09:00,48.3,9.0,31.72,NW,315,2.9,5.8,20,0.00,FEW,,0.00,0.0,WeatherDisplay:10.37,2013-01-19 01:09:00,
2013-01-18 18:14:00,48.1,8.8,31.72,NNW,331,1.1,5.8,20,0.00,FEW,,0.00,0.0,WeatherDisplay:10.37,2013-01-19 01:14:00,
2013-01-18 18:19:00,48.0,8.8,31.72,WNW,297,3.2,4.0,20,0.00,FEW,,0.00,0.0,WeatherDisplay:10.37,2013-01-19 01:19:00,
2013-01-18 18:24:00,47.8,9.7,31.72,WNW,283,2.1,8.0,21,0.00,FEW,,0.00,0.0,WeatherDisplay:10.37,2013-01-19 01:24:00,
2013-01-18 18:29:00,47.6,9.5,31.72,NW,323,1.7,10.4,21,0.00,FEW,,0.00,0.0,WeatherDisplay:10.37,2013-01-19 01:29:00,
2013-01-18 18:34:00,47.5,9.4,31.72,WNW,296,2.3,3.5,21,0.00,FEW,,0.00,0.0,WeatherDisplay:10.37,2013-01-19 01:34:00,
2013-01-18 18:39:00,47.4,9.4,31.72,West,272,2.1,4.6,21,0.00,FEW,,0.00,0.0,WeatherDisplay:10.37,2013-01-19 01:39:00,
2013-01-18 18:44:00,47.3,9.3,31.72,WNW,286,2.7,5.8,21,0.00,FEW,,0.00,0.0,WeatherDisplay:10.37,2013-01-19 01:44:00,
2013-01-18 18:49:00,47.2,9.2,31.72,WNW,302,3.8,6.0,21,0.00,FEW,,0.00,0.0,WeatherDisplay:10.37,2013-01-19 01:49:00,
2013-01-18 18:54:00,47.1,9.1,31.72,WNW,295,2.2,3.5,21,0.00,FEW,,0.00,0.0,WeatherDisplay:10.37,2013-01-19 01:54:00,
2013-01-18 18:59:00,47.0,9.0,31.72,WNW,298,3.0,7.0,21,0.00,FEW,,0.00,0.0,WeatherDisplay:10.37,2013-01-19 01:59:00,
2013-01-18 19:04:00,46.9,8.9,31.72,West,281,0.8,2.0,21,0.00,FEW,,0.00,0.0,WeatherDisplay:10.37,2013-01-19 02:04:00,
2013-01-18 19:09:00,46.7,8.8,31.72,NW,304,1.3,3.5,21,0.00,FEW,,0.00,0.0,WeatherDisplay:10.37,2013-01-19 02:09:00,
2013-01-18 19:14:00,46.6,8.7,31.72,WNW,299,0.7,3.5,21,0.00,FEW,,0.00,0.0,WeatherDisplay:10.37,2013-01-19 02:14:00,
2013-01-18 19:19:00,46.5,8.6,31.72,WNW,300,1.0,3.5,21,0.00,FEW,,0.00,0.0,WeatherDisplay:10.37,2013-01-19 02:19:00,
2013-01-18 19:24:00,46.3,8.4,31.72,WNW,300,0.6,2.0,21,0.00,FEW,,0.00,0.0,WeatherDisplay:10.37,2013-01-19 02:24:00,
2013-01-18 19:29:00,46.1,8.3,31.72,WNW,302,0.8,2.3,21,0.00,FEW,,0.00,0.0,WeatherDisplay:10.37,2013-01-19 02:29:00,
2013-01-18 19:34:00,45.8,8.0,31.72,WSW,257,2.2,3.5,21,0.00,FEW,,0.00,0.0,WeatherDisplay:10.37,2013-01-19 02:34:00,
2013-01-18 19:39:00,45.6,7.8,31.72,West,259,1.1,3.5,21,0.00,FEW,,0.00,0.0,WeatherDisplay:10.37,2013-01-19 02:39:00,
2013-01-18 19:44:00,45.3,7.6,31.72,WSW,248,1.1,2.3,21,0.00,FEW,,0.00,0.0,WeatherDisplay:10.37,2013-01-19 02:44:00,
2013-01-18 19:49:00,45.0,8.4,31.72,WSW,252,1.9,3.5,22,0.00,FEW,,0.00,0.0,WeatherDisplay:10.37,2013-01-19 02:49:00,
2013-01-18 19:54:00,44.5,7.9,31.72,WSW,244,2.3,3.5,22,0.00,FEW,,0.00,0.0,WeatherDisplay:10.37,2013-01-19 02:54:00,
2013-01-18 19:59:00,44.3,7.8,31.72,WSW,248,3.5,4.6,22,0.00,FEW,,0.00,0.0,WeatherDisplay:10.37,2013-01-19 02:59:00,
2013-01-18 20:04:00,44.1,7.6,31.72,WSW,250,1.1,4.0,22,0.00,FEW,,0.00,0.0,WeatherDisplay:10.37,2013-01-19 03:04:00,
2013-01-18 20:09:00,44.0,7.5,31.72,WSW,250,3.8,5.8,22,0.00,FEW,,0.00,0.0,WeatherDisplay:10.37,2013-01-19 03:09:00,
2013-01-18 20:14:00,44.0,6.5,31.72,WSW,256,2.3,5.8,21,0.00,FEW,,0.00,0.0,WeatherDisplay:10.37,2013-01-19 03:14:00,
2013-01-18 20:19:00,44.0,6.5,31.72,WSW,254,3.6,4.6,21,0.00,CLR,,0.00,0.0,WeatherDisplay:10.37,2013-01-19 03:19:00,
2013-01-18 20:24:00,44.0,6.5,31.72,WSW,258,2.4,4.6,21,0.00,CLR,,0.00,0.0,WeatherDisplay:10.37,2013-01-19 03:24:00,
2013-01-18 20:29:00,44.0,6.5,31.72,WSW,258,0.0,0.0,21,0.00,CLR,,0.00,0.0,WeatherDisplay:10.37,2013-01-19 03:29:00,
2013-01-18 20:34:00,44.0,6.5,31.72,WSW,258,1.4,3.5,21,0.00,CLR,,0.00,0.0,WeatherDisplay:10.37,2013-01-19 03:34:00,
2013-01-18 20:39:00,43.8,7.4,31.72,WSW,258,0.1,1.2,22,0.00,CLR,,0.00,0.0,WeatherDisplay:10.37,2013-01-19 03:39:00,
2013-01-18 20:44:00,43.6,7.2,31.72,WSW,258,0.2,1.2,22,0.00,CLR,,0.00,0.0,WeatherDisplay:10.37,2013-01-19 03:44:00,
2013-01-18 20:49:00,43.4,7.0,31.72,WSW,258,0.3,2.3,22,0.00,CLR,,0.00,0.0,WeatherDisplay:10.37,2013-01-19 03:49:00,
2013-01-18 20:54:00,43.2,6.8,31.72,WSW,258,0.0,0.0,22,0.00,CLR,,0.00,0.0,WeatherDisplay:10.37,2013-01-19 03:54:00,
2013-01-18 20:59:00,42.9,6.6,31.72,WSW,258,0.0,0.0,22,0.00,CLR,,0.00,0.0,WeatherDisplay:10.37,2013-01-19 03:59:00,
2013-01-18 21:04:00,42.5,7.2,31.72,WSW,258,0.0,0.0,23,0.00,CLR,,0.00,0.0,WeatherDisplay:10.37,2013-01-19 04:04:00,
2013-01-18 21:09:00,42.1,6.9,31.72,WSW,258,1.2,3.5,23,0.00,CLR,,0.00,0.0,WeatherDisplay:10.37,2013-01-19 04:09:00,
2013-01-18 21:14:00,41.6,7.4,31.72,WSW,258,0.0,0.0,24,0.00,CLR,,0.00,0.0,WeatherDisplay:10.37,2013-01-19 04:14:00,
2013-01-18 21:19:00,41.1,7.0,31.72,WSW,258,0.0,0.0,24,0.00,CLR,,0.00,0.0,WeatherDisplay:10.37,2013-01-19 04:19:00,
2013-01-18 21:24:00,40.7,6.6,31.72,West,259,0.0,0.0,24,0.00,CLR,,0.00,0.0,WeatherDisplay:10.37,2013-01-19 04:24:00,
2013-01-18 21:29:00,40.4,6.4,31.72,NNW,333,0.4,2.3,24,0.00,CLR,,0.00,0.0,WeatherDisplay:10.37,2013-01-19 04:29:00,
2013-01-18 21:34:00,40.1,6.1,31.72,NNW,333,0.1,1.2,24,0.00,CLR,,0.00,0.0,WeatherDisplay:10.37,2013-01-19 04:34:00,
2013-01-18 21:39:00,39.7,5.8,31.72,NNW,333,0.0,0.0,24,0.00,CLR,,0.00,0.0,WeatherDisplay:10.37,2013-01-19 04:39:00,
2013-01-18 21:44:00,39.5,6.5,31.72,NNW,333,0.1,1.2,25,0.00,CLR,,0.00,0.0,WeatherDisplay:10.37,2013-01-19 04:44:00,
2013-01-18 21:49:00,39.4,6.4,31.72,NNW,333,1.1,1.2,25,0.00,CLR,,0.00,0.0,WeatherDisplay:10.37,2013-01-19 04:49:00,
2013-01-18 21:54:00,39.4,6.4,31.72,NNW,333,1.1,1.2,25,0.00,CLR,,0.00,0.0,WeatherDisplay:10.37,2013-01-19 04:54:00,
2013-01-18 21:59:00,39.4,6.4,31.72,NNW,333,1.1,1.2,25,0.00,CLR,,0.00,0.0,WeatherDisplay:10.37,2013-01-19 04:59:00,
2013-01-18 22:00:00,39.4,6.4,31.72,NNW,333,1.1,1.2,25,0.00,CLR,,0.00,0.0,WeatherDisplay:10.37,2013-01-19 05:00:00,
2013-01-18 22:03:00,39.4,6.4,31.72,NNW,333,1.1,1.2,25,0.00,CLR,,0.00,0.0,WeatherDisplay:10.37,2013-01-19 05:03:00,
2013-01-18 22:08:00,39.4,6.4,31.72,NNW,333,1.1,1.2,25,0.00,CLR,,0.00,0.0,WeatherDisplay:10.37,2013-01-19 05:08:00,
2013-01-18 22:13:00,39.4,6.4,31.72,NNW,333,1.1,1.2,25,0.00,CLR,,0.00,0.0,WeatherDisplay:10.37,2013-01-19 05:13:00,
2013-01-18 22:18:00,39.4,6.4,31.72,NNW,333,1.1,1.2,25,0.00,FEW,,0.00,0.0,WeatherDisplay:10.37,2013-01-19 05:18:00,
2013-01-18 22:23:00,39.4,6.4,31.72,NNW,333,1.1,1.2,25,0.00,FEW,,0.00,0.0,WeatherDisplay:10.37,2013-01-19 05:23:00,
2013-01-18 22:28:00,39.4,6.4,31.72,NNW,333,1.1,1.2,25,0.00,FEW,,0.00,0.0,WeatherDisplay:10.37,2013-01-19 05:28:00,
2013-01-18 22:33:00,39.4,6.4,31.72,NNW,333,1.1,1.2,25,0.00,FEW,,0.00,0.0,WeatherDisplay:10.37,2013-01-19 05:33:00,
2013-01-18 22:38:00,39.4,6.4,31.72,NNW,333,1.1,1.2,25,0.00,FEW,,0.00,0.0,WeatherDisplay:10.37,2013-01-19 05:38:00,
2013-01-18 22:43:00,39.4,6.4,31.72,NNW,333,1.1,1.2,25,0.00,FEW,,0.00,0.0,WeatherDisplay:10.37,2013-01-19 05:43:00,
2013-01-18 22:48:00,39.4,6.4,31.72,NNW,333,1.1,1.2,25,0.00,FEW,,0.00,0.0,WeatherDisplay:10.37,2013-01-19 05:48:00,
2013-01-18 22:53:00,41.3,8.1,31.83,SSE,168,1.1,2.0,25,0.00,FEW,,0.00,0.0,WeatherDisplay:10.37,2013-01-19 05:53:00,
2013-01-18 22:58:00,41.0,7.8,31.83,SSE,168,0.0,0.0,25,0.00,FEW,,0.00,0.0,WeatherDisplay:10.37,2013-01-19 05:58:00,
2013-01-18 23:03:00,40.7,7.5,31.83,SSE,168,1.6,3.5,25,0.00,SCT,,0.00,0.0,WeatherDisplay:10.37,2013-01-19 06:03:00,
2013-01-18 23:08:00,40.5,7.4,31.83,SSE,168,0.0,0.0,25,0.00,SCT,,0.00,0.0,WeatherDisplay:10.37,2013-01-19 06:08:00,
2013-01-18 23:13:00,40.2,7.1,31.83,SE,136,0.7,4.0,25,0.00,SCT,,0.00,0.0,WeatherDisplay:10.37,2013-01-19 06:13:00,
2013-01-18 23:18:00,39.8,8.5,31.83,SE,146,2.3,3.5,27,0.00,SCT,,0.00,0.0,WeatherDisplay:10.37,2013-01-19 06:18:00,
2013-01-18 23:23:00,39.3,8.0,31.83,SE,146,2.2,3.5,27,0.00,SCT,,0.00,0.0,WeatherDisplay:10.37,2013-01-19 06:23:00,
2013-01-18 23:28:00,39.0,7.8,31.83,South,169,1.6,3.5,27,0.00,SCT,,0.00,0.0,WeatherDisplay:10.37,2013-01-19 06:28:00,
2013-01-18 23:33:00,38.7,7.5,31.83,South,186,1.6,3.5,27,0.00,SCT,,0.00,0.0,WeatherDisplay:10.37,2013-01-19 06:33:00,
2013-01-18 23:38:00,38.3,8.0,31.83,South,186,0.3,1.2,28,0.00,SCT,,0.00,0.0,WeatherDisplay:10.37,2013-01-19 06:38:00,
2013-01-18 23:43:00,37.9,6.8,31.83,South,189,2.4,5.0,27,0.00,SCT,,0.00,0.0,WeatherDisplay:10.37,2013-01-19 06:43:00,
2013-01-18 23:48:00,37.6,7.4,31.83,South,189,0.8,3.5,28,0.00,SCT,,0.00,0.0,WeatherDisplay:10.37,2013-01-19 06:48:00,
2013-01-18 23:53:00,37.3,7.1,31.83,South,189,0.0,1.2,28,0.00,SCT,,0.00,0.0,WeatherDisplay:10.37,2013-01-19 06:53:00,
2013-01-18 23:58:00,37.1,6.9,31.83,South,189,0.0,0.0,28,0.00,SCT,,0.00,0.0,WeatherDisplay:10.37,2013-01-19 06:58:00,